| time (UTC) | temp F | wind direction | speed MPH | gust MPH | rain 1hr in | rain 24hr in | rain mn in | humidity % | barometer mb |
| 20260504173205 | 66 | 356 | 2.0 | 6.0 | 0.00 | 0.00 | 0.00 | 61 | 1010.9 |
| 20260504172705 | 66 | 6 | 2.0 | 6.0 | 0.00 | 0.00 | 0.00 | 61 | 1010.9 |
| 20260504172206 | 66 | 331 | 2.0 | 6.0 | 0.00 | 0.00 | 0.00 | 61 | 1010.9 |
| 20260504171705 | 66 | 321 | 2.0 | 6.0 | 0.00 | 0.00 | 0.00 | 61 | 1010.8 |
| 20260504171205 | 66 | 314 | 2.0 | 6.0 | 0.00 | 0.00 | 0.00 | 61 | 1010.9 |
| 20260504170705 | 66 | 327 | 3.0 | 7.0 | 0.00 | 0.00 | 0.00 | 59 | 1010.9 |
| 20260504170208 | 66 | 314 | 3.0 | 7.0 | 0.00 | 0.00 | 0.00 | 59 | 1010.9 |
| 20260504160206 | 68 | 314 | 3.0 | 10.0 | 0.00 | 0.00 | 0.00 | 55 | 1011.4 |
| 20260504150705 | 69 | 250 | 5.0 | 9.0 | 0.00 | 0.00 | 0.00 | 53 | 1011.6 |
| 20260504150206 | 69 | 243 | 5.0 | 10.0 | 0.00 | 0.00 | 0.00 | 54 | 1011.5 |
| 20260504141205 | 69 | 28 | 2.0 | 5.0 | 0.00 | 0.00 | 0.00 | 54 | 1011.8 |
| 20260504140705 | 69 | 6 | 2.0 | 4.0 | 0.00 | 0.00 | 0.00 | 58 | 1011.7 |
| 20260504140205 | 69 | 314 | 2.0 | 4.0 | 0.00 | 0.00 | 0.00 | 56 | 1011.7 |
| 20260504130205 | 70 | 272 | 4.0 | 8.0 | 0.00 | 0.00 | 0.00 | 50 | 1012.0 |
| 20260504120206 | 69 | 258 | 4.0 | 8.0 | 0.00 | 0.00 | 0.00 | 53 | 1012.3 |
| 20260504110705 | 68 | 259 | 4.0 | 8.0 | 0.00 | 0.00 | 0.00 | 52 | 1012.6 |
| 20260504100205 | 67 | 197 | 3.0 | 7.0 | 0.00 | 0.00 | 0.00 | 54 | 1013.3 |
| 20260504081705 | 63 | 276 | 2.0 | 5.0 | 0.00 | 0.00 | 0.00 | 57 | 1013.9 |
| 20260504081205 | 62 | 248 | 2.0 | 7.0 | 0.00 | 0.00 | 0.00 | 57 | 1013.8 |
| 20260504080706 | 62 | 89 | 3.0 | 7.0 | 0.00 | 0.00 | 0.00 | 56 | 1013.8 |
| 20260504080205 | 62 | 195 | 3.0 | 7.0 | 0.00 | 0.00 | 0.00 | 57 | 1013.8 |
| 20260504070208 | 53 | 46 | 1.0 | 4.0 | 0.00 | 0.00 | 0.00 | 83 | 1013.8 |
| 20260504060205 | 49 | 178 | 0.0 | 2.0 | 0.00 | 0.00 | 0.00 | 84 | 1013.7 |
| 20260504050705 | 48 | 89 | 1.0 | 2.0 | 0.00 | 0.00 | 0.00 | 80 | 1013.6 |
| 20260504050205 | 48 | 79 | 1.0 | 2.0 | 0.00 | 0.00 | 0.00 | 80 | 1013.7 |
| 20260504045705 | 48 | 124 | 1.0 | 2.0 | 0.00 | 0.00 | 0.00 | 79 | 1013.6 |
| 20260504044705 | 48 | 81 | 1.0 | 3.0 | 0.00 | 0.00 | 0.00 | 79 | 1013.6 |
| 20260504044206 | 48 | 76 | 1.0 | 3.0 | 0.00 | 0.00 | 0.00 | 78 | 1013.6 |
| 20260504043705 | 49 | 60 | 2.0 | 3.0 | 0.00 | 0.00 | 0.00 | 78 | 1013.5 |
| 20260504043205 | 49 | 46 | 1.0 | 3.0 | 0.00 | 0.00 | 0.00 | 77 | 1013.5 |
| 20260504042705 | 49 | 117 | 0.0 | 1.0 | 0.00 | 0.00 | 0.00 | 77 | 1013.5 |
| 20260504042205 | 49 | 1 | 0.0 | 2.0 | 0.00 | 0.00 | 0.00 | 77 | 1013.4 |
| 20260504041708 | 49 | 135 | 1.0 | 3.0 | 0.00 | 0.00 | 0.00 | 76 | 1013.5 |
| 20260504041205 | 49 | 178 | 1.0 | 3.0 | 0.00 | 0.00 | 0.00 | 76 | 1013.4 |
| 20260504040205 | 50 | 72 | 2.0 | 4.0 | 0.00 | 0.00 | 0.00 | 75 | 1013.4 |
| 20260504035705 | 50 | 89 | 2.0 | 4.0 | 0.00 | 0.00 | 0.00 | 75 | 1013.3 |
| 20260504035206 | 50 | 65 | 1.0 | 2.0 | 0.00 | 0.00 | 0.00 | 75 | 1013.3 |
| 20260504034705 | 51 | 39 | 0.0 | 2.0 | 0.00 | 0.00 | 0.00 | 75 | 1013.4 |
| 20260504033705 | 51 | 46 | 1.0 | 3.0 | 0.00 | 0.00 | 0.00 | 75 | 1013.4 |
| 20260504033206 | 51 | 89 | 2.0 | 3.0 | 0.00 | 0.00 | 0.00 | 75 | 1013.5 |
| 20260504032704 | 51 | 81 | 2.0 | 4.0 | 0.00 | 0.00 | 0.00 | 75 | 1013.4 |
| 20260504031705 | 51 | 205 | 1.0 | 4.0 | 0.00 | 0.00 | 0.00 | 75 | 1013.5 |
| 20260504031205 | 51 | 144 | 1.0 | 2.0 | 0.00 | 0.00 | 0.00 | 75 | 1013.4 |
| 20260504030705 | 52 | 164 | 1.0 | 3.0 | 0.00 | 0.00 | 0.00 | 75 | 1013.4 |
| 20260504030206 | 52 | 89 | 0.0 | 3.0 | 0.00 | 0.00 | 0.00 | 75 | 1013.5 |
| 20260504025205 | 52 | 104 | 2.0 | 5.0 | 0.00 | 0.00 | 0.00 | 75 | 1013.6 |
| 20260504024705 | 52 | 170 | 2.0 | 5.0 | 0.00 | 0.00 | 0.00 | 74 | 1013.6 |
| 20260504024206 | 52 | 162 | 1.0 | 4.0 | 0.00 | 0.00 | 0.00 | 74 | 1013.6 |
| 20260504023705 | 52 | 122 | 2.0 | 4.0 | 0.00 | 0.00 | 0.00 | 74 | 1013.5 |
| 20260504023205 | 52 | 155 | 2.0 | 4.0 | 0.00 | 0.00 | 0.00 | 74 | 1013.3 |
| 20260504022705 | 52 | 145 | 2.0 | 4.0 | 0.00 | 0.00 | 0.00 | 74 | 1013.4 |
| 20260504022205 | 53 | 170 | 1.0 | 4.0 | 0.00 | 0.00 | 0.00 | 74 | 1013.4 |
| 20260504021705 | 53 | 89 | 1.0 | 4.0 | 0.00 | 0.00 | 0.00 | 73 | 1013.4 |
| 20260504021206 | 53 | 124 | 2.0 | 4.0 | 0.00 | 0.00 | 0.00 | 73 | 1013.3 |
| 20260504020705 | 53 | 89 | 3.0 | 4.0 | 0.00 | 0.00 | 0.00 | 73 | 1013.3 |
| 20260504020213 | 54 | 79 | 3.0 | 4.0 | 0.00 | 0.00 | 0.00 | 73 | 1013.3 |
| 20260504015705 | 54 | 89 | 3.0 | 4.0 | 0.00 | 0.00 | 0.00 | 73 | 1013.4 |
| 20260504014705 | 55 | 77 | 3.0 | 4.0 | 0.00 | 0.00 | 0.00 | 73 | 1013.4 |
| 20260504014205 | 55 | 104 | 2.0 | 4.0 | 0.00 | 0.00 | 0.00 | 73 | 1013.3 |
| 20260504013705 | 55 | 95 | 2.0 | 3.0 | 0.00 | 0.00 | 0.00 | 73 | 1013.3 |
| 20260504013205 | 55 | 74 | 1.0 | 3.0 | 0.00 | 0.00 | 0.00 | 73 | 1013.3 |
| 20260504012705 | 56 | 79 | 1.0 | 2.0 | 0.00 | 0.00 | 0.00 | 73 | 1013.3 |
| 20260504012204 | 56 | 89 | 1.0 | 2.0 | 0.00 | 0.00 | 0.00 | 73 | 1013.3 |
| 20260504011705 | 56 | 72 | 0.0 | 2.0 | 0.00 | 0.00 | 0.00 | 73 | 1013.3 |
| 20260504011214 | 56 | 46 | 1.0 | 3.0 | 0.00 | 0.00 | 0.00 | 72 | 1013.3 |
| 20260504010705 | 56 | 89 | 1.0 | 3.0 | 0.00 | 0.00 | 0.00 | 72 | 1013.2 |
| 20260504010205 | 56 | 89 | 1.0 | 3.0 | 0.00 | 0.00 | 0.00 | 72 | 1013.3 |
| 20260504005705 | 57 | 67 | 1.0 | 3.0 | 0.00 | 0.00 | 0.00 | 71 | 1013.2 |
| 20260504005206 | 57 | 28 | 1.0 | 3.0 | 0.00 | 0.00 | 0.00 | 71 | 1013.1 |
| 20260504004706 | 57 | 117 | 1.0 | 1.0 | 0.00 | 0.00 | 0.00 | 70 | 1013.2 |
| 20260504004206 | 57 | 108 | 0.0 | 2.0 | 0.00 | 0.00 | 0.00 | 69 | 1013.2 |
| 20260504003705 | 57 | 46 | 0.0 | 2.0 | 0.00 | 0.00 | 0.00 | 68 | 1013.3 |
| 20260504003205 | 57 | 151 | 1.0 | 2.0 | 0.00 | 0.00 | 0.00 | 68 | 1013.2 |
| 20260504002705 | 57 | 1 | 1.0 | 2.0 | 0.00 | 0.00 | 0.00 | 68 | 1013.3 |
| 20260504001705 | 58 | 258 | 1.0 | 3.0 | 0.00 | 0.00 | 0.00 | 66 | 1013.4 |
| 20260504001204 | 58 | 40 | 1.0 | 3.0 | 0.00 | 0.00 | 0.00 | 66 | 1013.4 |
| 20260503235705 | 58 | 72 | 1.0 | 4.0 | 0.00 | 0.00 | 0.00 | 65 | 1013.6 |
| 20260503235206 | 59 | 89 | 1.0 | 4.0 | 0.00 | 0.00 | 0.00 | 64 | 1013.6 |
| 20260503234706 | 59 | 240 | 2.0 | 6.0 | 0.00 | 0.00 | 0.00 | 63 | 1013.7 |
| 20260503234205 | 59 | 151 | 3.0 | 6.0 | 0.00 | 0.00 | 0.00 | 63 | 1013.7 |
| 20260503233705 | 59 | 170 | 4.0 | 6.0 | 0.00 | 0.00 | 0.00 | 61 | 1013.7 |
| 20260503233205 | 60 | 195 | 4.0 | 7.0 | 0.00 | 0.00 | 0.00 | 61 | 1013.6 |
| 20260503232705 | 60 | 199 | 3.0 | 7.0 | 0.00 | 0.00 | 0.00 | 60 | 1013.7 |
| 20260503232205 | 60 | 204 | 2.0 | 4.0 | 0.00 | 0.00 | 0.00 | 60 | 1013.6 |
| 20260503231705 | 60 | 229 | 2.0 | 3.0 | 0.00 | 0.00 | 0.00 | 60 | 1013.6 |
| 20260503231205 | 61 | 210 | 2.0 | 3.0 | 0.00 | 0.00 | 0.00 | 60 | 1013.6 |
| 20260503230705 | 61 | 158 | 2.0 | 3.0 | 0.00 | 0.00 | 0.00 | 58 | 1013.5 |
| 20260503230205 | 61 | 135 | 2.0 | 3.0 | 0.00 | 0.00 | 0.00 | 58 | 1013.4 |
| 20260503225205 | 62 | 135 | 1.0 | 3.0 | 0.00 | 0.00 | 0.00 | 56 | 1013.4 |
| 20260503224705 | 62 | 104 | 1.0 | 2.0 | 0.00 | 0.00 | 0.00 | 53 | 1013.4 |
| 20260503224205 | 62 | 46 | 1.0 | 2.0 | 0.00 | 0.00 | 0.00 | 51 | 1013.5 |
| 20260503223705 | 62 | 331 | 0.0 | 1.0 | 0.00 | 0.00 | 0.00 | 51 | 1013.4 |
| 20260503223206 | 62 | 1 | 0.0 | 2.0 | 0.00 | 0.00 | 0.00 | 50 | 1013.4 |
| 20260503222705 | 62 | 89 | 1.0 | 2.0 | 0.00 | 0.00 | 0.00 | 49 | 1013.5 |
| 20260503222205 | 62 | 240 | 1.0 | 2.0 | 0.00 | 0.00 | 0.00 | 48 | 1013.4 |
| 20260503221705 | 62 | 46 | 1.0 | 2.0 | 0.00 | 0.00 | 0.00 | 48 | 1013.5 |
| 20260503221206 | 62 | 269 | 1.0 | 3.0 | 0.00 | 0.00 | 0.00 | 48 | 1013.4 |
| 20260503220705 | 63 | 135 | 1.0 | 3.0 | 0.00 | 0.00 | 0.00 | 47 | 1013.2 |
| 20260503220205 | 63 | 253 | 1.0 | 6.0 | 0.00 | 0.00 | 0.00 | 47 | 1013.2 |
| 20260503215705 | 63 | 302 | 2.0 | 6.0 | 0.00 | 0.00 | 0.00 | 47 | 1013.2 |
| 20260503215205 | 63 | 295 | 3.0 | 6.0 | 0.00 | 0.00 | 0.00 | 47 | 1013.2 |
| 20260503214705 | 63 | 272 | 3.0 | 9.0 | 0.00 | 0.00 | 0.00 | 46 | 1013.2 |
| 20260503214205 | 63 | 269 | 3.0 | 9.0 | 0.00 | 0.00 | 0.00 | 47 | 1013.2 |
| 20260503213205 | 63 | 293 | 4.0 | 10.0 | 0.00 | 0.00 | 0.00 | 46 | 1013.3 |
| 20260503212705 | 63 | 245 | 5.0 | 10.0 | 0.00 | 0.00 | 0.00 | 46 | 1013.4 |
| 20260503212206 | 63 | 302 | 6.0 | 12.0 | 0.00 | 0.00 | 0.00 | 45 | 1013.5 |
| 20260503211705 | 63 | 269 | 5.0 | 12.0 | 0.00 | 0.00 | 0.00 | 45 | 1013.5 |
| 20260503211205 | 64 | 318 | 6.0 | 13.0 | 0.00 | 0.00 | 0.00 | 45 | 1013.6 |
| 20260503210205 | 64 | 277 | 6.0 | 15.0 | 0.00 | 0.00 | 0.00 | 45 | 1013.3 |
| 20260503205705 | 64 | 248 | 7.0 | 15.0 | 0.00 | 0.00 | 0.00 | 44 | 1013.2 |
| 20260503205206 | 64 | 271 | 6.0 | 12.0 | 0.00 | 0.00 | 0.00 | 44 | 1013.0 |
| 20260503204705 | 64 | 281 | 6.0 | 12.0 | 0.00 | 0.00 | 0.00 | 44 | 1013.2 |
| 20260503204205 | 64 | 4 | 6.0 | 11.0 | 0.00 | 0.00 | 0.00 | 44 | 1013.2 |
| 20260503203706 | 64 | 257 | 6.0 | 11.0 | 0.00 | 0.00 | 0.00 | 44 | 1012.8 |
| 20260503203205 | 65 | 295 | 6.0 | 12.0 | 0.00 | 0.00 | 0.00 | 44 | 1012.8 |
| 20260503202706 | 65 | 278 | 6.0 | 17.0 | 0.00 | 0.00 | 0.00 | 44 | 1012.8 |
| 20260503201705 | 65 | 255 | 6.0 | 17.0 | 0.00 | 0.00 | 0.00 | 44 | 1012.8 |
| 20260503201208 | 65 | 293 | 6.0 | 16.0 | 0.00 | 0.00 | 0.00 | 44 | 1012.7 |
| 20260503200705 | 65 | 245 | 7.0 | 16.0 | 0.00 | 0.00 | 0.00 | 43 | 1012.7 |
| 20260503195705 | 66 | 298 | 8.0 | 17.0 | 0.00 | 0.00 | 0.00 | 43 | 1012.6 |
| 20260503195205 | 66 | 304 | 8.0 | 21.0 | 0.00 | 0.00 | 0.00 | 43 | 1012.6 |
| 20260503194706 | 66 | 265 | 8.0 | 21.0 | 0.00 | 0.00 | 0.00 | 42 | 1012.5 |
| 20260503194205 | 66 | 324 | 9.0 | 19.0 | 0.00 | 0.00 | 0.00 | 43 | 1012.5 |
| 20260503193705 | 66 | 303 | 11.0 | 19.0 | 0.00 | 0.00 | 0.00 | 43 | 1012.4 |
| 20260503193205 | 66 | 248 | 9.0 | 19.0 | 0.00 | 0.00 | 0.00 | 43 | 1012.4 |
| 20260503192205 | 67 | 279 | 4.0 | 11.0 | 0.00 | 0.00 | 0.00 | 45 | 1012.3 |
| 20260503191705 | 68 | 310 | 2.0 | 4.0 | 0.00 | 0.00 | 0.00 | 44 | 1012.1 |
| 20260503191206 | 68 | 283 | 1.0 | 3.0 | 0.00 | 0.00 | 0.00 | 44 | 1011.9 |
| 20260503190705 | 68 | 295 | 1.0 | 2.0 | 0.00 | 0.00 | 0.00 | 44 | 1011.9 |
| 20260503190205 | 68 | 231 | 0.0 | 2.0 | 0.00 | 0.00 | 0.00 | 44 | 1011.8 |
| 20260503185705 | 69 | 277 | 0.0 | 2.0 | 0.00 | 0.00 | 0.00 | 43 | 1011.7 |
| 20260503184205 | 69 | 286 | 1.0 | 3.0 | 0.00 | 0.00 | 0.00 | 41 | 1011.7 |
| 20260503183705 | 69 | 269 | 1.0 | 5.0 | 0.00 | 0.00 | 0.00 | 40 | 1011.6 |
| 20260503183214 | 69 | 269 | 2.0 | 5.0 | 0.00 | 0.00 | 0.00 | 40 | 1011.6 |
| 20260503182705 | 70 | 295 | 2.0 | 5.0 | 0.00 | 0.00 | 0.00 | 40 | 1011.6 |
| 20260503182205 | 70 | 208 | 2.0 | 6.0 | 0.00 | 0.00 | 0.00 | 39 | 1011.5 |
| 20260503181206 | 70 | 276 | 5.0 | 10.0 | 0.00 | 0.00 | 0.00 | 39 | 1011.4 |
| 20260503180705 | 70 | 245 | 5.0 | 9.0 | 0.00 | 0.00 | 0.00 | 39 | 1011.4 |
| 20260503180214 | 70 | 245 | 4.0 | 8.0 | 0.00 | 0.00 | 0.00 | 39 | 1011.4 |
| 20260503175705 | 70 | 248 | 4.0 | 8.0 | 0.00 | 0.00 | 0.00 | 39 | 1011.4 |
| 20260503175205 | 71 | 243 | 4.0 | 10.0 | 0.00 | 0.00 | 0.00 | 39 | 1011.3 |
| 20260503174705 | 71 | 236 | 5.0 | 10.0 | 0.00 | 0.00 | 0.00 | 39 | 1011.3 |
| 20260503174206 | 71 | 248 | 5.0 | 10.0 | 0.00 | 0.00 | 0.00 | 39 | 1011.3 |
| 20260503173705 | 71 | 243 | 5.0 | 7.0 | 0.00 | 0.00 | 0.00 | 40 | 1011.3 |